Weather History for Danbury, CT

Change the Weather History Date:

Thursday, April 18, 2013

  Actual Average Record
Temperature  
Mean Temperature 48 °F -  
Max Temperature 59 °F 62 °F 94 °F (1976)
Min Temperature 39 °F 37 °F 25 °F (1962)
Degree Days  
Heating Degree Days 17    
Moisture  
Dew Point 38 °F    
Average Humidity 63    
Maximum Humidity 86    
Minimum Humidity 39    
Precipitation  
Precipitation 0.00 in - - ()
Sea Level Pressure  
Sea Level Pressure 30.28 in    
Wind  
Wind Speed 5 mph (SE)    
Max Wind Speed 17 mph    
Max Gust Speed 24 mph    
Visibility 10 miles    
Events      
Averages and records for this station are not official NWS values.
T = Trace of Precipitation, MM = Missing Value Source: NWS Daily Summary

Daily Weather History Graph

Daily Weather History Graph

Search for Another Location

Airport:

Trip Planner

Search our weather history database for the weather conditions in past years. The results will help you decide how hot, cold, wet, or windy it might be!

Date:

Astronomy

Apr. 18, 2013 Rise Set
Actual Time 6:09 AM EDT 7:37 PM EDT
Civil Twilight 5:40 AM EDT 8:06 PM EDT
Nautical Twilight 5:05 AM EDT 8:41 PM EDT
Astronomical Twilight 4:28 AM EDT 9:18 PM EDT
Moon 12:17 PM EDT (4/18) 1:51 AM EDT (4/18)
Length of Visible Light 14h 26m
Length of Day
13h 28m
First Quarter, 51% of the Moon is Illuminated
Apr 18
First Quarter
Apr 25
Full
May 2
Last Quarter
May 9
New
May 18
First Quarter

Hourly Weather History & Observations

Time (EDT) Temp. Windchill Dew Point Humidity Pressure Visibility Wind Dir Wind Speed Gust Speed Precip Events Conditions
12:53 AM 43.0 °F - 34.0 °F 71% 30.33 in 10.0 mi Calm Calm - N/A   Clear
1:53 AM 46.9 °F - 32.0 °F 56% 30.32 in 10.0 mi Calm Calm - N/A   Clear
2:53 AM 46.0 °F 43.9 °F 36.0 °F 68% 30.34 in 10.0 mi NE 4.6 mph - N/A   Clear
3:53 AM 44.1 °F - 37.0 °F 76% 30.35 in 10.0 mi Calm Calm - N/A   Clear
4:53 AM 39.0 °F - 35.1 °F 86% 30.35 in 10.0 mi Calm Calm - N/A   Clear
5:53 AM 41.0 °F - 36.0 °F 82% 30.34 in 10.0 mi Calm Calm - N/A   Scattered Clouds
6:53 AM 42.1 °F - 37.0 °F 82% 30.37 in 10.0 mi Calm Calm - N/A   Partly Cloudy
7:53 AM 48.0 °F - 39.0 °F 71% 30.37 in 10.0 mi Calm Calm - N/A   Overcast
8:53 AM 51.1 °F - 37.0 °F 59% 30.36 in 10.0 mi SE 3.5 mph - N/A   Overcast
9:53 AM 55.0 °F - 30.9 °F 40% 30.37 in 10.0 mi ESE 11.5 mph 21.9 mph N/A   Mostly Cloudy
10:53 AM 55.0 °F - 33.1 °F 43% 30.37 in 10.0 mi SE 11.5 mph 21.9 mph N/A   Overcast
11:53 AM 57.0 °F - 32.0 °F 39% 30.35 in 10.0 mi SSE 13.8 mph 21.9 mph N/A   Overcast
12:53 PM 57.9 °F - 35.1 °F 42% 30.33 in 10.0 mi SSE 17.3 mph 23.0 mph N/A   Overcast
1:53 PM 57.9 °F - 36.0 °F 44% 30.32 in 10.0 mi SSE 9.2 mph 24.2 mph N/A   Overcast
2:53 PM 55.9 °F - 34.0 °F 44% 30.30 in 10.0 mi SSE 12.7 mph 20.7 mph N/A   Overcast
3:53 PM 55.9 °F - 36.0 °F 47% 30.28 in 10.0 mi SSE 11.5 mph 19.6 mph N/A   Overcast
4:53 PM 55.9 °F - 37.0 °F 49% 30.25 in 10.0 mi South 10.4 mph 21.9 mph N/A   Overcast
5:42 PM 53.6 °F - 39.2 °F 58% 30.24 in 10.0 mi South 5.8 mph 17.3 mph N/A   Overcast
5:53 PM 54.0 °F - 39.9 °F 59% 30.25 in 10.0 mi South 11.5 mph 19.6 mph N/A   Overcast
6:53 PM 53.1 °F - 41.0 °F 64% 30.24 in 10.0 mi SE 10.4 mph 19.6 mph N/A   Overcast
7:53 PM 52.0 °F - 42.1 °F 69% 30.22 in 10.0 mi SE 9.2 mph - N/A   Overcast
8:53 PM 51.1 °F - 42.1 °F 71% 30.20 in 10.0 mi SSE 6.9 mph - N/A   Overcast
9:05 PM 51.8 °F - 42.8 °F 71% 30.19 in 10.0 mi SE 9.2 mph - N/A   Overcast
9:53 PM 51.1 °F - 43.0 °F 74% 30.17 in 10.0 mi ESE 8.1 mph - N/A   Overcast
10:53 PM 51.1 °F - 45.0 °F 80% 30.14 in 10.0 mi SE 8.1 mph - N/A   Overcast
11:09 PM 51.8 °F - 44.6 °F 76% 30.14 in 10.0 mi SSE 9.2 mph - N/A   Overcast
11:53 PM 52.0 °F - 46.9 °F 83% 30.13 in 9.0 mi SSE 8.1 mph - N/A   Overcast